{"data":{"norad_id":65801,"epoch":"2026-05-25T02:51:16.555104Z","epoch_age_seconds":60646,"freshness":"FRESH","line1":"1 65801U 25218L   26145.11894161  .00007095  00000+0  49513-3 0  9992","line2":"2 65801  97.4506   7.9637 0001703  94.4743 265.6679 15.05660292 36474","mean_motion":15.05660292,"eccentricity":0.0001703,"inclination_deg":97.4506,"raan_deg":7.9637,"arg_perigee_deg":94.4743,"mean_anomaly_deg":265.6679,"bstar":0.00049513,"rev_number":3647,"period_min":95.639103166307,"perigee_km":548.29981142496,"apogee_km":550.65935763365,"semimajor_km":6927.6165845293,"source":"CELESTRAK","updated_at":"2026-05-25T13:38:20.938060Z"}}